Tulsa, OK

3:50 PM CST on December 05, 2016 (GMT -0600)
Tulsa International

Weather History for KTUL - January, 2012

Change the Weather History Date:

Wednesday, January 4, 2012

  Actual Average Record
Temperature  
Mean Temperature 47 °F 37 °F  
Max Temperature 63 °F 47 °F 70 °F (1955)
Min Temperature 31 °F 28 °F -8 °F (1947)
Degree Days  
Heating Degree Days 18 28  
Month to date heating degree days 95 112  
Since 1 July heating degree days 1365 1540  
Moisture  
Dew Point 27 °F    
Average Humidity 51    
Maximum Humidity 78    
Minimum Humidity 23    
Precipitation  
Precipitation 0.00 in 0.06 in 1.96 in (1932)
Month to date precipitation 0.00 0.23  
Year to date precipitation 0.00 0.23  
Sea Level Pressure  
Sea Level Pressure 30.25 in    
Wind  
Wind Speed 5 mph (WNW)    
Max Wind Speed 17 mph    
Max Gust Speed 22 mph    
Visibility 10 miles    
Events      
T = Trace of Precipitation, MM = Missing Value Source: NWS Daily Summary

Daily Weather History Graph

Daily Weather History Graph

Search for Another Location

Airport or City:

Trip Planner

Search our weather history database for the weather conditions in past years. The results will help you decide how hot, cold, wet, or windy it might be!

Date:

Astronomy

Jan. 04, 2012 Rise Set
Actual Time 7:35 AM CST 5:21 PM CST
Civil Twilight 7:06 AM CST 5:50 PM CST
Nautical Twilight 6:34 AM CST 6:22 PM CST
Astronomical Twilight 6:03 AM CST 6:53 PM CST
Moon 1:44 PM CST (1/4) 3:25 AM CST (1/4)
Length of Visible Light 10h 43m
Length of Day
9h 46m
Waxing Gibbous, 81% of the Moon is Illuminated
Jan 4
Waxing Gibbous
Jan 9
Full
Jan 16
Last Quarter
Jan 23
New
Jan 30
First Quarter

Hourly Weather History & Observations

Time (CST) Temp. Windchill Dew Point Humidity Pressure Visibility Wind Dir Wind Speed Gust Speed Precip Events Conditions
12:53 AM 41.0 °F 38.0 °F 25.0 °F 53% 30.13 in 10.0 mi SSE 4.6 mph - N/A   Clear
1:53 AM 39.0 °F 36.8 °F 25.0 °F 57% 30.14 in 10.0 mi SSE 3.5 mph - N/A   Clear
2:53 AM 39.9 °F 35.8 °F 25.0 °F 55% 30.14 in 10.0 mi South 5.8 mph - N/A   Clear
3:53 AM 36.0 °F - 25.0 °F 64% 30.16 in 10.0 mi Calm Calm - N/A   Clear
4:53 AM 35.1 °F - 25.0 °F 67% 30.18 in 10.0 mi Calm Calm - N/A   Clear
5:53 AM 37.0 °F 34.5 °F 26.1 °F 65% 30.20 in 10.0 mi SSW 3.5 mph - N/A   Clear
6:53 AM 33.1 °F - 26.1 °F 75% 30.23 in 10.0 mi Calm Calm - N/A   Clear
7:53 AM 30.9 °F 27.5 °F 25.0 °F 79% 30.26 in 10.0 mi NW 3.5 mph - N/A   Clear
8:53 AM 37.9 °F 33.5 °F 28.9 °F 70% 30.30 in 10.0 mi NNW 5.8 mph - N/A   Clear
9:53 AM 46.4 °F 42.9 °F 30.2 °F 53% 30.31 in 10.0 mi North 6.9 mph - N/A   Clear
10:53 AM 51.1 °F - 28.9 °F 43% 30.33 in 10.0 mi North 13.8 mph - N/A   Clear
11:53 AM 53.1 °F - 30.0 °F 41% 30.31 in 10.0 mi North 10.4 mph - N/A   Clear
12:53 PM 57.0 °F - 28.0 °F 33% 30.28 in 10.0 mi Variable 6.9 mph - N/A   Clear
1:53 PM 60.1 °F - 24.1 °F 25% 30.25 in 10.0 mi NNW 6.9 mph - N/A   Clear
2:53 PM 63.0 °F - 25.0 °F 24% 30.24 in 10.0 mi NNW 10.4 mph - N/A   Clear
3:53 PM 62.1 °F - 25.0 °F 24% 30.25 in 10.0 mi WNW 6.9 mph - N/A   Clear
4:53 PM 57.9 °F - 25.0 °F 28% 30.25 in 10.0 mi West 4.6 mph - N/A   Clear
5:53 PM 55.0 °F - 24.1 °F 30% 30.27 in 10.0 mi WNW 5.8 mph - N/A   Clear
6:53 PM 50.0 °F - 25.0 °F 38% 30.28 in 10.0 mi West 4.6 mph - N/A   Clear
7:53 PM 46.9 °F - 27.0 °F 46% 30.30 in 10.0 mi West 5.8 mph - N/A   Clear
8:53 PM 46.9 °F - 28.0 °F 48% 30.31 in 10.0 mi West 4.6 mph - N/A   Clear
9:53 PM 43.0 °F - 28.9 °F 58% 30.31 in 10.0 mi Calm Calm - N/A   Clear
10:53 PM 39.9 °F - 28.0 °F 63% 30.32 in 10.0 mi Calm Calm - N/A   Clear
11:53 PM 42.1 °F 40.2 °F 28.9 °F 60% 30.30 in 10.0 mi South 3.5 mph - N/A   Clear